Wind_Speed
18 19 18 17 17 17 17 17 20 22 25 27 30 33 32 33 36 35 34 35 36 31 32 36 32 24 31 29 24 25 24 23 19 19 34 33 22 42 41 39 43 40 35 34
16 17 17 17 18 17 16 17 19 21 22 24 27 31 32 33 37 36 40 35 34 33 28 24 25 23 21 24 22 21 21 22 15 12 29 24 21 22 29 37 35 45 41 36
17 17 16 16 17 16 16 17 18 19 21 23 24 26 28 30 36 38 35 36 36 30 29 17 13 17 15 21 20 18 20 21 17 17 17 15 20 19 16 21 26 40 39 42
14 15 15 15 16 15 16 17 17 18 20 21 23 23 26 28 35 37 33 36 32 30 22 2 10 11 9 15 19 15 17 17 18 16 19 14 20 22 21 20 27 35 34 36
13 13 14 14 16 15 16 16 16 18 19 19 21 24 26 27 32 33 31 33 28 29 18 13 18 16 7 11 16 14 15 15 18 13 13 15 19 24 18 24 30 27 29 48
13 12 12 13 13 14 16 15 15 17 18 18 19 22 24 26 30 32 30 30 30 23 20 20 17 12 8 12 15 14 14 14 16 16 16 17 17 22 27 30 22 28 21 25
14 13 14 12 11 14 17 16 16 15 16 18 18 19 22 24 27 29 30 28 26 25 17 11 13 11 10 14 13 12 12 11 11 14 15 15 17 22 26 29 33 34 27 22
16 14 14 12 11 12 14 15 16 15 15 16 16 17 18 20 24 26 29 27 26 22 22 17 11 9 14 15 13 13 11 9 10 11 12 16 16 21 24 21 24 32 35 33
19 14 13 12 12 13 14 14 15 14 14 15 14 15 16 18 20 23 26 28 26 25 22 19 16 13 11 11 12 11 12 12 11 11 13 14 15 17 19 17 14 22 21 23
22 18 14 12 10 11 13 13 12 11 12 14 14 14 14 14 16 20 22 25 26 24 21 19 16 14 13 11 10 9 8 10 13 15 15 17 19 18 14 13 10 12 18 12
25 23 19 14 12 12 10 8 8 9 11 14 13 13 13 12 13 15 18 21 22 22 19 17 13 11 11 10 8 8 8 9 10 14 14 11 15 20 20 21 22 19 15 12
29 28 24 20 15 12 10 9 9 9 10 12 13 11 13 12 11 12 14 16 17 16 17 16 13 10 8 7 6 6 5 4 6 10 13 14 14 16 21 21 16 23 19 16
33 31 29 27 21 14 11 10 9 9 10 11 13 11 11 12 11 10 11 12 13 13 13 12 12 12 5 3 2 3 5 7 6 12 11 19 16 17 16 13 21 20 22 21
38 35 32 30 28 22 15 11 7 8 9 10 12 13 11 12 11 9 8 9 9 10 10 11 9 9 8 6 2 2 3 4 7 7 8 11 16 14 23 14 24 20 18 17
43 39 35 33 31 28 22 15 9 8 7 9 11 13 13 11 10 9 6 6 6 7 7 8 8 6 5 6 6 2 3 4 5 7 9 10 10 14 17 23 24 23 23 21
44 41 39 38 35 32 30 21 13 10 8 8 11 12 13 12 11 10 7 5 4 4 5 5 5 5 5 3 2 2 3 2 1 0 1 4 9 14 12 10 11 11 13 14
45 44 43 42 39 36 33 25 20 14 12 10 11 11 12 12 13 11 9 7 6 5 5 5 4 2 2 3 3 2 2 2 3 4 6 8 9 10 11 12 14 16 17 18
51 51 48 44 42 41 29 29 25 19 15 11 10 12 11 10 10 12 9 9 8 7 7 7 6 5 3 2 1 3 4 4 5 5 6 7 7 8 9 11 13 14 16 17
54 52 51 49 45 40 36 29 28 22 17 14 11 11 12 11 8 10 11 11 11 10 10 10 10 9 7 7 6 6 5 5 6 7 7 8 9 9 11 12 13 14 17 19
58 55 55 53 50 44 33 31 30 24 19 16 12 11 10 12 12 11 11 11 11 12 13 12 13 13 12 11 10 10 10 9 9 10 10 10 11 12 13 14 15 16 17 18
64 61 59 55 51 46 40 34 30 26 18 17 14 10 11 13 14 13 11 10 10 12 15 16 16 15 15 14 14 14 14 13 13 13 13 14 15 16 16 17 17 18 18 19
66 63 61 57 53 48 39 33 26 21 22 17 16 13 14 16 15 15 14 14 14 16 15 16 19 18 17 17 16 16 17 16 16 17 17 18 19 20 21 22 21 21 21 21
70 67 62 58 50 42 29 30 30 31 26 20 17 14 16 16 16 15 13 15 16 17 20 21 22 22 19 20 19 18 17 19 19 19 19 20 22 24 25 27 26 25 24 24
71 66 63 58 53 43 36 33 34 29 26 23 19 16 14 17 17 16 16 15 15 17 16 19 25 25 24 22 22 22 18 19 19 20 21 22 24 27 29 30 30 28 27 26
72 68 64 59 53 44 41 40 34 31 30 26 23 18 17 20 20 21 20 20 20 18 17 17 21 27 27 24 23 23 22 22 21 23 23 23 25 28 30 31 30 28 28 27
79 71 66 61 52 44 38 35 35 35 31 29 27 22 20 23 23 24 24 24 25 24 21 17 16 25 28 27 26 25 24 24 24 24 24 24 27 29 30 31 31 29 29 29
Wind_Direction
270 272 270 276 281 284 289 300 310 315 319 324 330 336 338 335 335 327 319 313 307 303 283 275 265 255 249 247 241 226 225 234 240 262 246 250 220 220 220 218 209 207 212 217
280 273 269 273 273 280 285 296 304 310 318 326 336 338 342 341 336 333 331 331 327 319 308 282 258 247 241 242 236 224 216 219 204 227 248 241 235 201 212 217 219 208 211 210
270 274 273 271 271 278 284 292 299 309 319 327 340 342 346 343 340 339 338 335 331 326 316 285 244 227 220 230 225 214 206 209 208 226 242 236 207 193 216 217 226 221 214 216
274 276 277 273 274 276 280 288 299 310 319 328 338 351 351 348 345 347 343 340 347 349 347 208 168 175 192 210 214 213 203 190 204 214 224 204 215 217 205 214 225 219 215 227
280 279 275 272 270 272 277 289 301 310 317 325 341 349 354 356 351 354 357 360 3 13 27 103 133 126 138 195 198 198 205 193 201 204 231 235 210 218 215 214 233 220 213 213
272 275 276 273 269 269 276 288 299 310 318 325 342 351 357 358 360 359 4 14 15 31 56 101 126 119 159 176 189 192 200 193 200 201 211 225 228 229 231 232 203 227 203 220
266 267 275 271 266 268 280 291 298 308 314 327 342 350 359 0 4 4 7 15 19 29 50 68 93 137 155 163 171 174 184 189 200 205 214 231 238 237 235 240 250 246 211 211
256 260 263 264 264 269 283 293 299 307 319 328 337 347 359 3 6 10 9 17 33 38 45 65 74 108 134 144 158 168 170 186 192 206 213 233 243 245 249 251 259 254 239 235
247 245 251 261 264 272 281 293 295 303 316 325 335 343 359 6 8 14 17 12 27 41 47 60 76 85 107 134 145 154 167 173 186 196 197 208 211 230 241 252 263 265 261 274
240 238 242 256 266 273 282 290 294 304 315 321 337 341 350 7 11 17 18 16 18 31 44 51 71 84 92 99 118 135 149 160 177 190 195 188 186 181 192 206 220 248 258 249
234 237 239 250 261 269 273 288 297 309 319 320 335 336 342 359 14 22 23 20 21 23 34 39 53 69 89 108 123 133 150 177 199 202 193 184 184 175 173 180 185 193 212 234
232 233 235 241 249 260 261 268 291 310 323 327 328 337 339 352 6 19 29 28 28 26 26 33 30 34 54 85 118 142 169 191 207 204 198 190 188 183 186 172 191 180 184 198
234 234 235 238 243 250 254 257 276 302 318 327 329 339 339 345 355 7 22 33 36 39 38 29 32 35 31 51 87 146 181 191 225 243 219 209 206 214 216 216 218 204 197 201
234 235 236 239 239 243 247 252 276 306 313 326 338 348 347 337 346 351 8 18 33 36 50 53 45 31 40 44 63 141 175 207 225 236 252 248 234 282 244 263 261 255 247 243
231 233 236 239 240 241 244 246 258 288 303 315 327 339 352 334 332 335 352 356 5 26 37 59 65 64 50 52 65 119 167 176 193 212 224 254 265 280 259 254 261 255 253 257
228 229 234 237 238 239 240 239 242 258 283 312 324 330 338 346 327 322 331 335 323 351 359 27 67 80 90 87 64 71 116 161 204 67 215 230 230 244 256 268 274 272 261 260
229 228 229 232 236 236 235 237 238 246 262 287 314 327 330 343 339 315 319 320 314 315 317 322 344 34 95 121 145 176 216 237 239 247 250 254 262 265 265 266 269 271 274 275
223 224 225 228 231 231 231 229 236 240 258 278 302 325 327 331 343 328 311 307 309 313 310 303 297 297 303 294 231 200 207 216 229 238 246 251 259 268 274 278 280 282 283 284
223 223 226 228 228 231 229 230 236 234 247 262 283 306 322 319 320 313 323 319 312 305 304 303 302 297 290 288 283 280 268 259 255 252 249 254 260 265 268 272 277 280 281 285
220 223 225 225 226 227 228 231 236 238 240 249 266 291 317 320 299 298 304 311 319 316 305 295 293 293 294 290 285 280 278 278 278 277 278 277 272 268 269 271 276 282 282 283
218 221 224 226 225 223 225 231 234 236 240 245 257 277 307 322 313 301 297 304 314 314 309 302 297 291 287 287 288 286 282 281 281 283 285 288 289 289 286 282 281 281 284 286
218 221 223 226 225 223 224 228 235 232 235 236 247 266 293 312 311 316 298 296 307 318 320 307 302 299 290 287 285 285 286 285 283 284 288 290 290 291 293 293 294 294 294 295
216 219 223 227 226 231 227 226 220 224 230 234 244 262 295 299 308 309 299 292 295 304 313 315 306 302 295 289 285 286 288 284 282 283 286 289 293 296 298 299 300 301 299 297
221 218 222 223 222 223 224 223 223 226 229 233 239 264 283 288 298 307 305 301 289 285 288 300 304 301 301 298 288 281 281 281 282 282 284 287 291 297 301 302 303 302 299 295
221 221 221 223 222 220 220 221 219 225 232 230 238 254 268 278 289 293 308 315 314 293 281 292 304 305 307 305 298 290 283 279 279 282 283 286 291 295 299 302 303 302 297 294
220 220 220 221 223 221 219 224 228 231 231 230 238 249 260 276 283 293 301 312 315 311 303 295 304 307 306 306 305 293 285 281 281 285 285 288 292 294 300 304 303 302 297 295
Height
5801 5801 5801 5800 5799 5798 5796 5794 5791 5789 5785 5780 5773 5766 5759 5751 5744 5737 5730 5724 5717 5712 5707 5705 5708 5710 5716 5721 5726 5732 5737 5741 5744 5744 5754 5757 5761 5766 5771 5775 5782 5790 5798 5804
5797 5796 5797 5796 5795 5794 5792 5791 5789 5786 5782 5778 5771 5762 5756 5747 5739 5731 5723 5715 5707 5701 5695 5694 5696 5702 5707 5713 5721 5727 5732 5738 5740 5746 5750 5756 5760 5765 5770 5774 5779 5784 5792 5798
5793 5793 5792 5792 5791 5790 5789 5788 5786 5783 5778 5774 5769 5761 5754 5746 5736 5727 5718 5710 5701 5692 5685 5683 5688 5695 5702 5709 5716 5722 5729 5735 5737 5744 5750 5754 5760 5764 5768 5772 5776 5781 5787 5792
5789 5788 5788 5788 5787 5787 5785 5785 5783 5779 5776 5772 5767 5762 5753 5745 5735 5724 5716 5707 5698 5687 5677 5676 5684 5693 5700 5706 5713 5719 5725 5728 5735 5738 5745 5748 5756 5758 5765 5771 5774 5773 5779 5787
5786 5785 5784 5784 5784 5783 5783 5781 5780 5776 5773 5770 5764 5759 5752 5745 5736 5726 5717 5708 5699 5690 5682 5681 5687 5695 5700 5705 5712 5716 5722 5725 5730 5736 5740 5745 5750 5754 5758 5761 5769 5769 5775 5780
5782 5782 5782 5781 5780 5780 5779 5779 5777 5774 5771 5768 5762 5758 5752 5745 5736 5727 5719 5711 5704 5698 5693 5691 5694 5697 5702 5705 5710 5715 5721 5724 5731 5734 5740 5744 5748 5752 5756 5758 5763 5767 5770 5774
5778 5779 5779 5778 5777 5777 5776 5775 5774 5772 5768 5765 5761 5757 5752 5745 5737 5730 5722 5716 5709 5704 5700 5699 5698 5699 5703 5707 5711 5716 5721 5724 5729 5734 5738 5742 5746 5749 5752 5755 5759 5763 5767 5770
5775 5776 5776 5776 5775 5774 5773 5772 5771 5768 5765 5763 5760 5756 5752 5746 5739 5733 5725 5720 5715 5710 5707 5704 5704 5705 5706 5709 5713 5717 5720 5725 5727 5731 5733 5739 5741 5745 5747 5751 5755 5759 5764 5766
5770 5772 5772 5772 5772 5772 5770 5769 5768 5765 5763 5760 5758 5756 5752 5747 5741 5734 5729 5724 5718 5715 5713 5711 5709 5710 5713 5714 5715 5718 5720 5722 5726 5729 5731 5733 5735 5739 5743 5745 5749 5754 5758 5760
5765 5767 5768 5768 5769 5768 5767 5766 5764 5762 5760 5758 5757 5754 5751 5749 5744 5737 5732 5729 5723 5719 5717 5716 5715 5714 5714 5716 5720 5720 5723 5724 5727 5728 5728 5730 5732 5734 5736 5740 5744 5750 5753 5755
5758 5761 5764 5765 5765 5765 5764 5763 5761 5759 5758 5755 5755 5754 5750 5748 5745 5740 5735 5731 5728 5724 5721 5720 5719 5719 5718 5718 5718 5720 5723 5725 5724 5726 5729 5730 5730 5731 5733 5735 5739 5744 5748 5750
5751 5754 5758 5760 5761 5761 5760 5760 5758 5757 5756 5753 5752 5753 5749 5746 5745 5741 5737 5734 5732 5729 5725 5723 5721 5721 5720 5720 5721 5721 5721 5721 5724 5728 5730 5732 5732 5734 5736 5736 5739 5737 5741 5744
5744 5747 5751 5754 5757 5757 5757 5756 5755 5754 5752 5751 5750 5750 5747 5745 5743 5742 5739 5736 5734 5732 5730 5727 5724 5723 5723 5722 5722 5722 5722 5723 5727 5731 5733 5733 5734 5734 5735 5736 5738 5735 5735 5739
5735 5739 5744 5747 5750 5752 5753 5752 5751 5750 5750 5749 5748 5747 5746 5744 5743 5741 5739 5738 5735 5733 5732 5730 5728 5726 5724 5725 5725 5725 5725 5726 5727 5728 5730 5732 5733 5735 5733 5734 5736 5736 5736 5736
5725 5732 5736 5739 5742 5745 5747 5748 5747 5747 5746 5746 5746 5745 5744 5742 5741 5740 5738 5737 5736 5734 5733 5731 5730 5729 5727 5726 5726 5727 5728 5729 5729 5729 5729 5730 5730 5731 5734 5737 5736 5734 5735 5734
5715 5723 5727 5730 5734 5737 5740 5742 5744 5744 5743 5742 5742 5742 5741 5740 5739 5739 5737 5736 5735 5734 5733 5732 5731 5729 5729 5728 5727 5726 5727 5728 5728 5728 5729 5730 5732 5734 5734 5733 5733 5734 5734 5732
5707 5712 5716 5721 5725 5728 5732 5737 5738 5740 5740 5739 5739 5739 5738 5737 5736 5736 5735 5734 5734 5733 5733 5732 5732 5731 5729 5729 5728 5728 5727 5727 5727 5727 5727 5727 5727 5728 5729 5729 5730 5731 5730 5729
5691 5698 5704 5710 5716 5718 5729 5729 5732 5734 5735 5736 5736 5735 5735 5734 5734 5734 5733 5732 5731 5731 5731 5730 5730 5730 5729 5728 5728 5728 5727 5727 5726 5726 5726 5726 5726 5726 5726 5726 5726 5726 5726 5725
5681 5687 5694 5700 5707 5714 5718 5724 5725 5728 5731 5732 5733 5733 5732 5731 5731 5731 5731 5729 5729 5728 5727 5727 5727 5727 5727 5727 5727 5726 5726 5726 5726 5725 5725 5724 5724 5723 5723 5722 5721 5719 5718 5716
5668 5676 5682 5689 5695 5703 5715 5716 5718 5722 5726 5728 5729 5729 5728 5728 5729 5728 5728 5727 5726 5725 5724 5723 5722 5722 5723 5723 5723 5723 5723 5723 5723 5722 5722 5721 5721 5720 5719 5718 5717 5715 5713 5711
5655 5663 5669 5678 5686 5696 5705 5709 5711 5716 5724 5722 5724 5725 5725 5725 5726 5724 5724 5723 5723 5722 5721 5719 5718 5718 5718 5717 5718 5718 5718 5718 5718 5718 5717 5716 5715 5714 5713 5712 5711 5710 5708 5706
5644 5653 5661 5670 5678 5687 5697 5703 5709 5713 5712 5716 5718 5720 5720 5720 5719 5720 5720 5719 5718 5718 5717 5716 5714 5714 5713 5712 5712 5712 5712 5712 5713 5712 5712 5712 5710 5709 5708 5706 5704 5702 5700 5698
5628 5640 5651 5662 5675 5687 5695 5698 5699 5701 5706 5710 5712 5714 5715 5715 5714 5715 5715 5714 5714 5715 5713 5711 5709 5709 5708 5707 5707 5707 5707 5706 5706 5706 5706 5705 5704 5702 5701 5698 5696 5694 5692 5690
5619 5631 5640 5652 5664 5675 5685 5688 5690 5694 5699 5703 5706 5709 5710 5711 5710 5710 5710 5710 5710 5711 5711 5709 5705 5704 5703 5702 5702 5701 5701 5700 5700 5700 5699 5698 5697 5695 5693 5690 5689 5687 5685 5684
5610 5621 5632 5643 5655 5668 5674 5679 5683 5687 5691 5696 5699 5702 5704 5706 5705 5705 5705 5705 5706 5706 5706 5704 5702 5699 5698 5698 5696 5695 5695 5695 5694 5693 5692 5692 5690 5689 5686 5684 5682 5680 5679 5677
5597 5611 5622 5634 5648 5660 5669 5676 5679 5680 5684 5687 5691 5695 5698 5700 5699 5699 5700 5700 5700 5699 5698 5697 5697 5695 5693 5692 5691 5690 5689 5689 5688 5687 5686 5685 5684 5681 5680 5677 5675 5673 5670 5668